SSEC Globe Logo

Space Science and Engineering Center

Wisconsin State Observations

ASUS43 KMKX 282020                                              2023028 2020
RWRWI
WISCONSIN REGIONAL WEATHER ROUNDUP
NATIONAL WEATHER SERVICE MILWAUKEE/SULLIVAN WI
NOTE: "FAIR" INDICATES FEW OR NO CLOUDS BELOW 12,000 FEET WITH NO
SIGNIFICANT WEATHER AND/OR OBSTRUCTIONS TO VISIBILITY.

CITY           SKY/WX    TMP DP  RH WIND       PRES   REMARKS
SUPERIOR ARPT  SUNNY      8  -8  48 W8        30.28F WCI  -4
ASHLAND        MOSUNNY    7  -1  70 S8        30.25F WCI  -6
HAYWARD        MOSUNNY    6  -4  63 CALM      30.22F
SIREN          MOSUNNY    6  -8  53 NE6       30.26S WCI  -5
CUMBERLAND     PTSUNNY    9   1  72 N6        30.22F WCI  -1
RICE LAKE      PTSUNNY    4  -2  74 N6        30.25S WCI  -6
CHETEK         PTSUNNY    7  -2  66 CALM      30.24S
LADYSMITH      MOSUNNY    8   2  76 NW5       30.22F WCI  -1
EAU CLAIRE     PTSUNNY    8  -3  61 N9        30.23F WCI  -5
MENOMONIE      PTSUNNY   10   4  76 NW9       30.24S WCI  -3
NEW RICHMOND   PTSUNNY    4  -1  79 CALM      30.25F
OSCEOLA        PTSUNNY    5  -2  71 NW5       30.30F WCI  -4


CITY           SKY/WX    TMP DP  RH WIND       PRES   REMARKS
MANITOWISH WTR CLOUDY     9   0  67 NW3       30.14S
ARBOR VITAE    PTSUNNY    9   0  66 NW5       30.14S WCI   0
WOODRUFF       PTSUNNY    9   0  66 NW5       30.14S WCI   0
RHINELANDER    PTSUNNY   11  -1  58 N5        30.13F WCI   3
EAGLE RIVER    CLOUDY    11   0  61 N5        30.13S WCI   3
LAND O LAKES   CLOUDY    11   1  63 NW3       30.15R
PHILLIPS       CLOUDY     8   0  70 NE5       30.16S WCI  -1
TOMAHAWK       CLOUDY    13   2  63 W3        30.15F
MEDFORD        PTSUNNY    9   0  68 CALM      30.15S
MERRILL        PTSUNNY   11   1  64 CALM      30.15S


CITY           SKY/WX    TMP DP  RH WIND       PRES   REMARKS
WAUSAU         PTSUNNY   13   1  59 W6        30.15F WCI   4
MOSINEE        CLOUDY    12   1  62 N5        30.16F WCI   4
MARSHFIELD     PTSUNNY   10   1  67 NW5       30.15F WCI   2
STEVENS POINT  PTSUNNY   15   0  50 CALM      30.17S
WAUPACA        PTSUNNY   17   4  55 CALM      30.19S
WAUTOMA        CLOUDY    19   5  54 VRB5      30.19F WCI  12
WISC RAPIDS    PTSUNNY   12   2  64 NW6       30.19S WCI   3
CAMP DOUGLAS   CLOUDY    14   2  59 N7        30.15F WCI   4


CITY           SKY/WX    TMP DP  RH WIND       PRES   REMARKS
ANTIGO         PTSUNNY   11   2  66 N5        30.14S WCI   3
SHAWANO        PTSUNNY   18   7  60 CALM      30.18F
OCONTO         PTSUNNY   17   5  59 N5        30.20F WCI  10
STURGEON BAY   PTSUNNY   19   8  62 N7        30.20F WCI  10
GREEN BAY      PTSUNNY   18   6  59 CALM      30.20F
MANITOWOC      CLOUDY    19   7  59 N7        30.20F WCI  10
APPLETON       CLOUDY    16   3  57 CALM      30.16F
CLINTONVILLE   PTSUNNY   15   3  60 CALM      30.20S
OSHKOSH        CLOUDY    17   5  59 CALM      30.17F


CITY           SKY/WX    TMP DP  RH WIND       PRES   REMARKS
LA CROSSE      CLOUDY    15   4  61 NW12      30.20F WCI   2
SPARTA         PTSUNNY   14   4  63 CALM      30.17F
VIROQUA        CLOUDY    13  10  89 N10       30.12S WCI   0
BOSCOBEL       LGT SNOW  19  12  74 N7        30.16F VSB 1   WCI  10
PRAIRIE DU CHI MIX PCPN  17  12  79 N6        30.15F WCI   9
PLATTEVILLE    CLOUDY    18  13  81 NE12      30.11F WCI   5

CITY           SKY/WX    TMP DP  RH WIND       PRES   REMARKS
REEDSBURG      CLOUDY    14   8  78 N7        30.15S WCI   4
BARABOO/DELLS  LGT SNOW  16  13  85 N5        30.14F WCI   9
LONE ROCK      LGT SNOW  18  11  74 NE6       30.16S VSB 1   WCI  10
MINERAL POINT  NOT AVBL
MADISON        LGT SNOW  17  11  77 NE8       30.14F WCI   7
MIDDLETON      CLOUDY    18  14  82 NE7       30.14F WCI   9
WATERTOWN      LGT SNOW  17  11  77 N5        30.14F WCI  10
MONROE         LGT SNOW  17  14  86 NE9       30.09S WCI   6
JANESVILLE     LGT SNOW  19  16  86 NE10      30.13F WCI   8


CITY           SKY/WX    TMP DP  RH WIND       PRES   REMARKS
MILWAUKEE      SNOW      22  15  75 N8        30.15F VSB 1/2 WCI  12
WAUKESHA       LGT SNOW  18  12  79 N7        30.15F VSB 3/4 WCI   8
MILWAUKEE/TIMM LGT SNOW  19  12  73 NE6       30.17F VSB 1   WCI  11
RACINE         LGT SNOW  21  16  81 N7        30.17F WCI  12
KENOSHA        LGT SNOW  21  15  78 NE7       30.14F WCI  12
FOND DU LAC    LGT SNOW  16   9  74 N7        30.16F WCI   6
SHEBOYGAN      LGT SNOW  17  10  74 N7        30.17F WCI   8
WEST BEND      FLURRIES  18  12  79 N5        30.15F WCI  11
JUNEAU         LGT SNOW  15  11  83 N5        30.15F WCI   7
LSZ147-162-282100-
LAKE SUPERIOR

STATION/POSITION TIME  TEMP    WIND        PRES    WAVE
                       AIR SEA DIR/SP/G            HT/PER
                 (UTC) (F)     (DEG/KT/KT) (MB)    (FT/S)
DEVILS ISLAND    2000    9     240/  8/ 10 1026.0F
PORT WING        1940    8     260/  8/ 11 1024.7F
SAXON HARBOR     1940   12      CALM  /  5 1024.0F

LMZ867-665-643>646-282100-
LAKE MICHIGAN

STATION/POSITION TIME  TEMP    WIND        PRES    WAVE
                       AIR SEA DIR/SP/G            HT/PER
                 (UTC) (F)     (DEG/KT/KT) (MB)    (FT/S)
CHAMBERS ISLAND  1940   24     300/  2/  6   N/A
NORTHPORT PIER   1900   18     310/  6/  9   N/A
KEWAUNEE LAKESHO 1948   18     310/  2/  7 1022.0F
SHEBOYGAN LAKESH 2000   17     340/  5/  6 1023.4F
PORT WASHINGTON  1940   20     360/  5/  7 1023.4F
MILWAUKEE LAKESH 2000   20      20/  8/  9   N/A
KENOSHA   LAKESH 2000   21        CALM     1021.0
TC  - TEMPERATURE IN CELSIUS
VSB - VISIBILITY IN STATUTE MILES
WCI - WIND CHILL INDEX
HX  - HEAT INDEX